Address 0xa80a634132d9053218e7a870169a326b9b218912 4

 
Txn Hash Method
Block
From
To
Value [Txn Fee]
0xdb95f5446f2d77640b3619d4e179be59eed3f17ed41e799bcbbd0ed0f0a3842bTransfer119728412021-10-21 19:24:1638 days 1 hr ago0xa80a634132d9053218e7a870169a326b9b218912OUT0xb575e336b4f5262c8002f17e156f0f0dd661cf092.556061219244707 BNB0.000105
0x17d8925d9bf78e6bfff512d34ddb305506faffbaa575f57262a8c2f5c23d8258Swap Exact Token...119728132021-10-21 19:22:5238 days 1 hr ago0xa80a634132d9053218e7a870169a326b9b218912OUT Biswap: Router0 BNB0.000950565
0xd0e06aa167da023d3b53dac74f4ca344a752d05b472087b8f8ff2fcc553bea60Approve119727992021-10-21 19:22:1038 days 1 hr ago0xa80a634132d9053218e7a870169a326b9b218912OUT Ethereum: ETH Token0 BNB0.00022203
0x14376c95e566dea0d27431fd7f7a66881495b1222ac1429e3481c861916b4861Withdraw119726252021-10-21 19:13:2838 days 1 hr ago0xa80a634132d9053218e7a870169a326b9b218912OUT 0xc8d5d4f3dcbdfaad3a161843ab9e679688e4ea510 BNB0.000355265
0x2149e4eea77754891b5162c3a8dea4fb35a88ef0b5b77be28f5fa37a0ad311a8Swap Exact Token...119726102021-10-21 19:12:4338 days 1 hr ago0xa80a634132d9053218e7a870169a326b9b218912OUT Biswap: Router0 BNB0.00170413
0x26734162afbf972b702804a8fbeec449259d6242c853e0322069cc65c670840fSwap Exact Token...119721182021-10-21 18:48:0738 days 2 hrs ago0xa80a634132d9053218e7a870169a326b9b218912OUT Biswap: Router0 BNB0.00120291
0x6025b2fd662e2fe135f497cea76ce706f609dd900eac6cffc77dbd8ad90f6a1eApprove119720992021-10-21 18:47:1038 days 2 hrs ago0xa80a634132d9053218e7a870169a326b9b218912OUT Binance: BUSD Stablecoin0 BNB0.00022203
0x000f3c91e2b4bf120c85f05b9b7b57d5ccb2f742ca9aa1b27b5e87cf683b7b54Deposit119713242021-10-21 18:08:2538 days 2 hrs ago0xa80a634132d9053218e7a870169a326b9b218912OUT 0x97a16ff6fd63a46bf973671762a39f3780cda73d0 BNB0.001062855
0xe3537f3dc1d03782f0fcc89f16b2cdf3a3bdd356354bfcfc44f44871b8da3378Swap Exact Token...119705512021-10-21 17:29:2938 days 3 hrs ago0xa80a634132d9053218e7a870169a326b9b218912OUT Biswap: Router0 BNB0.001816455
0x76394cf0e2e83463d01b5417d5b60f2c5b852838275f02652f78e016499775b0Withdraw119704212021-10-21 17:22:5938 days 3 hrs ago0xa80a634132d9053218e7a870169a326b9b218912OUT 0xc8d5d4f3dcbdfaad3a161843ab9e679688e4ea510 BNB0.000355265
0x7bd3684e2317ee8e9e8262f9b5b177e549bfdc628f85b752c8553a7a54425dc4Withdraw119703492021-10-21 17:19:2338 days 3 hrs ago0xa80a634132d9053218e7a870169a326b9b218912OUT 0x97a16ff6fd63a46bf973671762a39f3780cda73d0 BNB0.000788365
0x652c8623b8ec1168c16dc371e7a9abc4dbb29fbb081ee158f67a3ca0a3ee99cdTransfer119619862021-10-21 10:05:0838 days 10 hrs ago0xb575e336b4f5262c8002f17e156f0f0dd661cf09 IN 0xa80a634132d9053218e7a870169a326b9b2189120.414086959725048 BNB0.000105
0x58d6be08bd22557883381fc96eb9308864269dbfc212880c3733ca651a723802Deposit118848042021-10-18 16:47:2641 days 4 hrs ago0xa80a634132d9053218e7a870169a326b9b218912OUT 0x97a16ff6fd63a46bf973671762a39f3780cda73d0 BNB0.000912855
0xe5cd133e5f1ad39427fc56450063e74f34a8770b8857524ee106ac1e94839fd5Swap Exact Token...118847932021-10-18 16:46:5341 days 4 hrs ago0xa80a634132d9053218e7a870169a326b9b218912OUT Biswap: Router0 BNB0.001329305
0xcad3a1a6a08f3a7341b450497f260caa923d233901288f6658e6bab52db066a8Withdraw118847682021-10-18 16:45:3841 days 4 hrs ago0xa80a634132d9053218e7a870169a326b9b218912OUT PancakeSwap: Auto CAKE Syrup Pool0 BNB0.00079543
0x73739e1e542db2ea4fccadfb6ce0bc86274a2d92c6d75f792e061d08c19ee746Deposit118847462021-10-18 16:44:3241 days 4 hrs ago0xa80a634132d9053218e7a870169a326b9b218912OUT PancakeSwap: Auto CAKE Syrup Pool0 BNB0.000706765
0x5098c6b6c851d29bd7a8d5fb1e8f9a214d051b233146cf9b302e7c0c3e024a06Harvest116788912021-10-11 11:22:5348 days 9 hrs ago0xa80a634132d9053218e7a870169a326b9b218912OUT PancakeSwap: Auto CAKE Syrup Pool0 BNB0.00110586
0xa38c30a486ca3aa1d23729b04a2dc6ef30616e13c095d654836b2985ef95a22cHarvest116060012021-10-08 22:28:1250 days 22 hrs ago0xa80a634132d9053218e7a870169a326b9b218912OUT PancakeSwap: Auto CAKE Syrup Pool0 BNB0.00118086
0xc6397eedcc08a7c46a98c1ef9ce40a6885b90031190486368d83749e307f85caDeposit115161742021-10-05 19:27:4354 days 1 hr ago0xa80a634132d9053218e7a870169a326b9b218912OUT 0x97a16ff6fd63a46bf973671762a39f3780cda73d0 BNB0.00073814
0x9e101e06a7bbdc60ac04230410d907ae1e54a22ff6bf27f82f93c16a51c71004Swap Exact Token...115161632021-10-05 19:27:1054 days 1 hr ago0xa80a634132d9053218e7a870169a326b9b218912OUT Biswap: Router0 BNB0.001254305
0xff3c4c8419d1cee5c9e23e3e509a60a706d40f1b1153076ef416590b6e7c3a27Swap Exact ETH F...115161532021-10-05 19:26:4054 days 1 hr ago0xa80a634132d9053218e7a870169a326b9b218912OUT Biswap: Router0.657874136115484 BNB0.00080428
0x4a1464a7b038ae492d7ef1554d5561e58618605773d5db2ee4759e24d5e7220aWithdraw115161282021-10-05 19:25:2554 days 1 hr ago0xa80a634132d9053218e7a870169a326b9b218912OUT PancakeSwap: Auto CAKE Syrup Pool0 BNB0.000700195
0x6b8c666db303f555ca0fb602e934c236d8ee185763cd88b787e0a0cba472bad7Harvest115070482021-10-05 11:50:5754 days 9 hrs ago0xa80a634132d9053218e7a870169a326b9b218912OUT PancakeSwap: Auto CAKE Syrup Pool0 BNB0.00037343
0x23f6f09a52e31d87b67ec6c3923915895dd07ae5638d454f8892aabc67ab45beHarvest114059542021-10-01 23:10:5957 days 21 hrs ago0xa80a634132d9053218e7a870169a326b9b218912OUT PancakeSwap: Auto CAKE Syrup Pool0 BNB0.00110586
0x7b84bca51c03e012f5189ef6cd2ce3d9202073bb0193444ef639a5386f5a21dcHarvest114057782021-10-01 23:02:1157 days 21 hrs ago0xa80a634132d9053218e7a870169a326b9b218912OUT PancakeSwap: Auto CAKE Syrup Pool0 BNB0.00110586
[ Download CSV Export 
Latest 8 internal transactions
Parent Txn Hash Block From To Value
0x17d8925d9bf78e6bfff512d34ddb305506faffbaa575f57262a8c2f5c23d8258119728132021-10-21 19:22:5238 days 1 hr ago Biswap: Router0xa80a634132d9053218e7a870169a326b9b2189122.149586929519659804 BNB
0x3e3a28912091bb8af7af6b1e56f325d352387f37bc671425af88452f18c44a1f108862442021-09-13 19:16:5276 days 1 hr ago Biswap: Router0xa80a634132d9053218e7a870169a326b9b2189120.592148376115484597 BNB
0x88b499f610fe30b73a1dd1ac75ff8831f095098c50895496d5f044471f43b77285019412021-06-21 22:36:16159 days 22 hrs ago PancakeSwap: Router v20xa80a634132d9053218e7a870169a326b9b21891217.193341168900256244 BNB
0x98efa6a7e2de00a852c83c1a7039293acbddfe472d6e3d85e08bc378d3c6d66869736762021-04-29 1:15:08213 days 19 hrs ago 0x71d0b494e3c2bc5316112d320308d65b2b3bd4fc0xa80a634132d9053218e7a870169a326b9b2189120.75 BNB
0xf10d654ab2fd5c32fcea6396fa912e08ff88144a897f0c37038ce4d7d8757b7e69736762021-04-29 1:15:08213 days 19 hrs ago 0x71d0b494e3c2bc5316112d320308d65b2b3bd4fc0xa80a634132d9053218e7a870169a326b9b2189120.75 BNB
0xb19088dccfac06219e97c69a6a006d760854f47fb80b99e977decd8136308a0769685482021-04-28 20:58:04214 days 3 mins ago 0x604cf7218d7f940f2d97be02bac5fe86eeba3d0f0xa80a634132d9053218e7a870169a326b9b2189120.000154579855835456 BNB
0x29d8f0e04282cbd6f2e43f64d8d6cb74726d3163af682a01891270f45b695fee69349722021-04-27 16:51:15215 days 4 hrs ago 0x604cf7218d7f940f2d97be02bac5fe86eeba3d0f0xa80a634132d9053218e7a870169a326b9b2189120.000332421784578188 BNB
0xe0c76be7b2f53bc3c9d053394231887e0dc9e76336c99d42713c938abfc47bac67280522021-04-20 10:14:53222 days 10 hrs ago 0xc590175e458b83680867afd273527ff58f74c02b0xa80a634132d9053218e7a870169a326b9b2189121.142007987754627786 BNB
[ Download CSV Export 
Loading

Contract Name:
0 BNB

Compiler Version
0

Optimization Enabled:
0 BNB

Other Settings:
-NA-
Block Transaction Gas Used Reward
Age Block Fee Address BC Fee Address Voting Power Jailed Incoming
Block Uncle Number Difficulty Gas Used Reward
Loading
Loading
Make sure to use the "Vote Down" button for any spammy posts, and the "Vote Up" for interesting conversations.